Regional Weather Roundup
Issued by NWS Upton, NY

Current Version | Previous Version | Text Only | Print | Product List | Glossary Off
Versions: 1 2 3 4 5 6 7 8 9 10 11 12 13 14 15 16 17 18 19 20 21 22 23 24 25 26 27 28 29
000 ASUS41 KOKX 250804 RWROKX REGIONAL WEATHER ROUNDUP NATIONAL WEATHER SERVICE NEW YORK NY 400 AM EDT THU AUG 25 2016 NOTE: "FAIR" INDICATES FEW OR NO CLOUDS BELOW 12,000 FEET WITH NO SIGNIFICANT WEATHER AND/OR OBSTRUCTIONS TO VISIBILITY. NYZ071-072-176-178-NJZ106-104-250900- NEW YORK CITY METRO AREA CITY SKY/WX TMP DP RH WIND PRES REMARKS Central Park N/A 72 63 73 MISG N/A LaGuardia APRT MOCLDY 73 63 70 SW12 30.11F Kennedy INTL MOCLDY 71 67 87 SW15 30.13F Newark/Liberty MOCLDY 71 63 75 SW10G23 30.12F Bronx Bot Gard N/A 72 61 68 SW5 30.14F Wall St Helipt PTSUNNY 73 66 78 W12 30.13F Teterboro MOCLDY 70 62 76 SW9 30.11F $$ NYZ177-179-078>081-250900- LONG ISLAND NEW YORK CITY SKY/WX TMP DP RH WIND PRES REMARKS Farmingdale PTCLDY 69 62 78 SW6 30.13F MacArthur/ISP CLEAR 69 63 81 SW6 30.14R Shirley CLEAR 69 64 84 SW3 30.15R Riverhead NOT AVBL Westhampton CLEAR 70 65 84 SW6 30.15S Southampton N/A 72 68 88 SW5 30.10R Bridgehampton N/A 66 64 94 CALM 30.13R East Hampton FAIR 69 65 89 SW5 30.13R Montauk N/A 71 67 87 SW7 30.15S $$ NYZ052-065-067-250900- HUDSON VALLEY CITY SKY/WX TMP DP RH WIND PRES REMARKS White Plains PTCLDY 69 61 75 W5 30.12F Newburgh CLEAR 64 63 94 CALM 30.13F Montgomery CLEAR 63 61 93 CALM 30.12S Poughkeepsie CLEAR 65 61 87 CALM 30.11R Albany PTCLDY 68 62 81 S8 30.07F $$ NJZ001-105-106-008-010-013-015-019>022-104-250900- NEW JERSEY CITY SKY/WX TMP DP RH WIND PRES REMARKS Newark/Liberty MOCLDY 71 63 75 SW10G23 30.12F Teterboro MOCLDY 70 62 76 SW9 30.11F Caldwell CLEAR 67 62 84 S3 30.13F Morristown PTCLDY 59 59 100 CALM 30.13F Somerville PTCLDY 60 58 92 CALM 30.12F FOG Linden FAIR 70 62 75 W7 30.14F Sussex CLEAR 59 59 100 CALM 30.13S Abdover N/A 61 60 97 CALM 30.14F Trenton PTCLDY 66 62 87 CALM 30.13F Millville CLEAR 62 62 100 CALM 30.15F Atlantic City PTCLDY 67 61 81 SW5 30.15F Wrightstown PTCLDY 64 62 93 SW6 30.12S Toms River CLEAR 64 61 90 SW5 30.15S Belmar PTCLDY 66 62 87 SW7 30.15F $$ PAZ047>061-062-071-250900- EASTERN PENNSYLVANIA CITY SKY/WX TMP DP RH WIND PRES REMARKS Philadelphia PTCLDY 69 63 81 SW5 30.15S Allentown CLEAR 68 61 78 CALM 30.12F Scranton CLEAR 69 63 81 SW8 30.12S $$ CTZ002-004>006-009-010-012-RIZ004-006-007-MAZ004-011-015-250900- SOUTHERN NEW ENGLAND IN CT CITY SKY/WX TMP DP RH WIND PRES REMARKS Bradley INTL CLOUDY 66 62 87 S6 30.11F Hartford CLOUDY 70 65 84 S6 30.11F Danbury PTCLDY 66 62 87 W3 30.13F Wtrbury/Oxford N/A 64 61 88 CALM 30.15S Bridgeport PTCLDY 74 63 68 SW13 30.11F Meriden MOCLDY 65 62 90 S3 30.12F New Haven PTCLDY 73 64 73 SW9 30.12S Chester FAIR 68 66 94 CALM 30.14R Groton CLEAR 72 67 84 CALM 30.12R Wilimantic PTCLDY 64 63 96 CALM 30.13S IN RI CITY SKY/WX TMP DP RH WIND PRES REMARKS Providence NOT AVBL Block Island CLOUDY 71 67 87 SW9 30.14F Westerly PTCLDY 70 65 84 CALM 30.14S IN MA CITY SKY/WX TMP DP RH WIND PRES REMARKS Boston CLOUDY 69 64 84 SW12 30.11R Worcester CLOUDY 64 61 90 SW14 30.12S Westfield PTCLDY 63 61 93 CALM 30.10F Provincetown PTCLDY 68 66 93 S10 30.12F Nantucket PTCLDY 69 67 93 S9 30.15F $$ ANZ330-335-338-340-345-350-353-355-250900- COASTAL MARINE OBSERVATIONS STATION/POSITION TIME SKY/WX TEMP WIND PRES VSBY WAVE AIR SEA DIR/SP/G HT/PER (UTC) (F) (DEG/KT/KT) (MB) (MI) (FT/S) NY HARB ENTRANCE 0650 73 77 230/ 16/ 17 1020.0 3/ 4 20S FIRE ISLAND 0650 75 76 240/ 14/ 17 1020.5 3/ 5 GREAT SOUTH BAY 0715 75 78 240/ 16/ 17 N/A 23 SSW MONTAUK P 0650 75 74 220/ 14/ 16 1021.1 3/11 15 E BARNEGAT LI 0700 75 N/A 3/11 HUDSON CANYON 0650 75 78 1021.4 2/11 KINGS POINT 0700 73 76 1020.4 EXECUTION ROCKS 0700 74 220/ 12/ 16 N/A CENTRAL LI SOUND 0700 74 75 230/ 16/ 19 N/A 2/ 4 EASTERN LI SOUND 0700 71 70 190/ 8/ 12 N/A ROBBINS REEF 0706 71 260/ 15/ 16 1019.8 $$ >>>>>>>>>>>>>>>>>>>>>>>>>>>> KEY <<<<<<<<<<<<<<<<<<<<<<<<<<< > < > SKY/WX - Sky Condition/Present Weather < > TMP - Temperature in Fahrenheit < > DP - Dew Point in Fahrenheit < > RH - Relative Humidity in Percent < > WIND - Direction (from) and Speed in MPH < > PRES - Mean Sea Level Pressure (inches of Hg) < > WCI - Wind Chill Index < > VSB - VISIBILITY IN MILES < > HX - HEAT INDEX < > TC - TEMPERATURE IN CELSIUS < > VRB - VARIABLE WIND DIRECTION < > < >>>>>>>>>>>>>>>>>>>>>>>>>>>> KEY <<<<<<<<<<<<<<<<<<<<<<<<<<<

USA.gov is the U.S. government's official web portal to all federal, state and local government web resources and services.